Weather History for PAIK - October, 2012

Change the Weather History Date:

Thursday, October 4, 2012

  Actual Average (PASK) Record (PASK)
Temperature  
Mean Temperature 42 °F -  
Max Temperature 43 °F 33 °F 51 °F (2003)
Min Temperature 39 °F 25 °F 21 °F (2000)
Degree Days  
Heating Degree Days 24    
Moisture  
Dew Point 40 °F    
Average Humidity 92    
Maximum Humidity 100    
Minimum Humidity 73    
Precipitation  
Precipitation 0.00 in - - ()
Sea Level Pressure  
Sea Level Pressure 29.79 in    
Wind  
Wind Speed 13 mph (East)    
Max Wind Speed 22 mph    
Max Gust Speed 31 mph    
Visibility 10 miles    
Events Rain    
Averages and records for this station are not official NWS values.
T = Trace of Precipitation, MM = Missing Value Source: NWS Daily Summary

Daily Weather History Graph

Daily Weather History Graph

Search for Another Location

Airport or City:

Trip Planner

Search our weather history database for the weather conditions in past years. The results will help you decide how hot, cold, wet, or windy it might be!

Date:

Astronomy

Oct. 04, 2012 Rise Set
Actual Time 9:06 AM AKDT 7:52 PM AKDT
Civil Twilight 8:12 AM AKDT 8:45 PM AKDT
Nautical Twilight 7:10 AM AKDT 9:47 PM AKDT
Astronomical Twilight 6:02 AM AKDT 10:54 PM AKDT
Moon 8:04 PM AKDT (10/4) 4:05 PM AKDT (10/4)
Length of Visible Light 12h 32m
Length of Day
10h 46m
Waning Gibbous, 81% of the Moon is Illuminated
Oct 4
Waning Gibbous
Oct 7
Last Quarter
Oct 15
New
Oct 21
First Quarter
Oct 29
Full

Hourly Weather History & Observations

Time (AKDT) Temp. Windchill Dew Point Humidity Pressure Visibility Wind Dir Wind Speed Gust Speed Precip Events Conditions
12:01 AM 41.0 °F 34.3 °F 37.9 °F 89% 30.02 in 10.0 mi East 11.5 mph 16.1 mph N/A   Mostly Cloudy
1:01 AM 41.0 °F 33.5 °F 37.0 °F 86% 30.00 in 10.0 mi East 13.8 mph 19.6 mph N/A   Overcast
2:01 AM 41.0 °F 33.1 °F 36.0 °F 82% 29.98 in 10.0 mi East 15.0 mph 20.7 mph N/A   Clear
3:01 AM 42.1 °F 34.2 °F 36.0 °F 79% 29.96 in 10.0 mi East 16.1 mph 24.2 mph N/A   Clear
4:01 AM 42.1 °F 35.2 °F 35.1 °F 76% 29.93 in 10.0 mi ENE 12.7 mph - N/A   Partly Cloudy
5:01 AM 43.0 °F 35.4 °F 35.1 °F 74% 29.89 in 10.0 mi East 16.1 mph 29.9 mph N/A   Overcast
6:01 AM 42.1 °F 33.6 °F 34.0 °F 73% 29.88 in 10.0 mi East 18.4 mph 28.8 mph N/A   Overcast
7:01 AM 42.1 °F 34.2 °F 34.0 °F 73% 29.86 in 10.0 mi ENE 16.1 mph 23.0 mph 0.00 in Rain Light Rain
8:01 AM 41.0 °F 32.8 °F 36.0 °F 82% 29.84 in 10.0 mi East 16.1 mph 24.2 mph 0.00 in Rain Light Rain
9:01 AM 41.0 °F 32.5 °F 37.0 °F 86% 29.83 in 10.0 mi East 17.3 mph 27.6 mph 0.00 in Rain Light Rain
10:01 AM 41.0 °F 31.9 °F 37.0 °F 86% 29.81 in 10.0 mi East 19.6 mph 28.8 mph 0.00 in Rain Light Rain
10:09 AM 39.2 °F 29.0 °F 37.4 °F 93% 29.69 in 10.0 mi East 21.9 mph 29.9 mph 0.00 in Rain Light Rain
10:54 AM 39.2 °F 29.3 °F 37.4 °F 93% 29.68 in 9.0 mi East 20.7 mph 29.9 mph 0.00 in Rain Light Rain
11:01 AM 39.9 °F 30.2 °F 37.9 °F 93% 29.80 in 10.0 mi East 20.7 mph 31.1 mph 0.00 in Rain Light Rain
11:46 AM 39.2 °F 30.2 °F 39.2 °F 100% 29.68 in 6.0 mi East 17.3 mph 21.9 mph 0.00 in Rain Light Rain
12:01 PM 41.0 °F 33.1 °F 39.9 °F 96% 29.81 in 4.0 mi East 15.0 mph 24.2 mph 0.00 in Rain Light Rain
1:01 PM 41.0 °F 33.1 °F 41.0 °F 100% 29.81 in 7.0 mi East 15.0 mph 20.7 mph 0.00 in Rain Light Rain
1:58 PM 42.8 °F 35.8 °F 41.0 °F 93% 29.69 in 10.0 mi East 13.8 mph - 0.00 in Rain Light Rain
2:01 PM 42.1 °F 34.9 °F 41.0 °F 96% 29.82 in 10.0 mi East 13.8 mph 19.6 mph 0.00 in Rain Light Rain
2:37 PM 42.8 °F 35.4 °F 41.0 °F 93% 29.69 in 10.0 mi East 15.0 mph 19.6 mph 0.00 in   Overcast
3:01 PM 43.0 °F 36.4 °F 42.1 °F 97% 29.81 in 10.0 mi East 12.7 mph 20.7 mph 0.00 in Rain Light Rain
3:43 PM 42.8 °F 38.0 °F 42.8 °F 100% 29.69 in 10.0 mi East 8.1 mph 16.1 mph 0.00 in   Overcast
4:01 PM 43.0 °F 36.4 °F 42.1 °F 97% 29.81 in 10.0 mi East 12.7 mph 18.4 mph 0.00 in Rain Light Rain
4:50 PM 44.6 °F 38.1 °F 42.8 °F 93% 29.68 in 10.0 mi ESE 13.8 mph 20.7 mph 0.00 in Rain Light Rain
5:01 PM 44.1 °F 37.1 °F 43.0 °F 96% 29.81 in 10.0 mi East 15.0 mph 20.7 mph 0.00 in Rain Light Rain
6:01 PM 44.1 °F 38.6 °F 43.0 °F 96% 29.81 in 10.0 mi East 10.4 mph 18.4 mph 0.00 in Rain Light Rain
6:15 PM 44.6 °F 38.8 °F 42.8 °F 93% 29.68 in 10.0 mi East 11.5 mph - 0.00 in Rain Light Rain
6:24 PM 44.6 °F 38.4 °F 42.8 °F 93% 29.68 in 10.0 mi East 12.7 mph 19.6 mph 0.00 in Rain Light Rain
6:54 PM 44.6 °F 38.8 °F 42.8 °F 93% 29.68 in 10.0 mi East 11.5 mph 18.4 mph 0.00 in Rain Light Rain
7:01 PM 44.1 °F 38.1 °F 43.0 °F 96% 29.81 in 10.0 mi East 11.5 mph - 0.00 in Rain Light Rain
7:23 PM 44.6 °F 39.2 °F 42.8 °F 93% 29.68 in 10.0 mi East 10.4 mph - 0.00 in Rain Light Rain
8:01 PM 44.1 °F 38.1 °F 43.0 °F 96% 29.81 in 10.0 mi East 11.5 mph 19.6 mph 0.00 in Rain Light Rain
8:29 PM 44.6 °F 39.2 °F 42.8 °F 93% 29.70 in 10.0 mi ESE 10.4 mph - 0.00 in Rain Light Rain
8:57 PM 42.8 °F 39.3 °F 42.8 °F 100% 29.72 in 10.0 mi ESE 5.8 mph - 0.00 in Rain Light Rain
9:01 PM 42.8 °F 40.1 °F 42.8 °F 100% 29.72 in 9.0 mi SE 4.6 mph - 0.00 in Rain Light Rain
9:18 PM 44.1 °F 42.5 °F 44.1 °F 100% 29.85 in 10.0 mi East 3.5 mph - 0.00 in Rain Light Rain
9:37 PM 44.6 °F - 44.6 °F 100% 29.74 in 10.0 mi Calm Calm - 0.00 in Rain Light Rain
9:58 PM 44.6 °F 40.7 °F 42.8 °F 93% 29.74 in 10.0 mi ENE 6.9 mph - 0.00 in Rain Light Rain
10:01 PM 44.1 °F 40.8 °F 43.0 °F 96% 29.87 in 10.0 mi ENE 5.8 mph - 0.00 in Rain Light Rain
11:01 PM 44.1 °F 42.5 °F 43.0 °F 96% 29.86 in 10.0 mi Variable 3.5 mph - 0.00 in   Overcast
11:30 PM 42.8 °F 39.3 °F 42.8 °F 100% 29.75 in 10.0 mi East 5.8 mph - N/A   Overcast